Location: Baix
(44.7118°N, 4.7648°E)
Time: 23:59:48
(UTC+00:00)

Vanguard 3 - Pass Details

Date: 03 December 2020
Orbit: 508 x 3262 km, 33.3° (Epoch: 19 January)

Event Time Altitude Azimuth Distance (km) Brightness Sun altitude
Rises 22:39:12 0° 248° (WSW) 2,623 - -65.1°
Reaches altitude 10° 22:42:19 10° 217° (SW) 1,863 - -65.4°
Maximum altitude 22:44:12 13° 190° (S) 1,806 - -65.6°
Drops below altitude 10° 22:46:20 10° 163° (SSE) 2,163 - -65.7°
Sets 22:50:37 0° 136° (SE) 3,540 - -66.1°
